Regional Weather Roundup
Issued by NWS Goodland, KS

Home | Current Version | Previous Version | Text Only | Print | Product List | Glossary Off
Versions: 1 2 3 4 5 6 7 8 9 10 11 12 13 14 15 16 17 18 19 20 21 22 23 24 25 26 27 28 29 30 31 32 33 34 35 36 37 38 39 40 41 42 43 44 45 46 47 48 49 50

641
ASUS43 KGLD 040559
RWRGLD

GOODLAND FORECAST AREA HOURLY WEATHER ROUNDUP
NATIONAL WEATHER SERVICE GOODLAND KS
1100 PM MST SAT DEC 03 2016

...OFFICIAL OBSERVATIONS...

CITY           SKY/WX    TMP DP  RH WIND       PRES   REMARKS
GOODLAND KS    CLOUDY    25  16  68 W12       30.04R WCI  14
HILL CITY KS   FOG       33  33 100 W6        30.05F VSB 1
IMPERIAL NEB   CLOUDY    28  15  58 W9        30.02S
MCCOOK NEB     CLEAR     30  28  92 W12       30.02S
AKRON CO       CLEAR     24  10  55 NW7       30.02F
BURLINGTON CO  CLEAR     21  11  65 NW10      30.05R WCI  10
LIMON CO       CLEAR      9   7  92 N5        30.05F
$$

...UNOFFICIAL OBSERVATIONS...

CITY           SKY/WX    TMP DP  RH WIND       PRES   REMARKS
COLBY KS       CLEAR     28  28 100 W10       30.04R WCI  19
LENORA KS        N/A     32  32 100 MISG        N/A
NORTON KS      CLOUDY    34  30  86 SW9       30.03S FOG
SHARON SPRINGS   N/A     25  22  87 NW8         N/A
TRENTON NEB      N/A     27  32 100 NW7         N/A
KIT CARSON CO    N/A     21  14  75 CALM        N/A
YUMA CO        FAIR      19  12  73 W10       30.04S WCI   8
$$




USA.gov is the U.S. government's official web portal to all federal, state and local government web resources and services.